星链-34565 (STARLINK-34565)

导读

STARLINK-34565是美国SpaceX公司星链(Starlink)低轨互联网卫星星座的一员,于2025年6月28日在美国卡纳维拉尔角太空军基地,由猎鹰9号运载火箭发射入轨。作为星链大规模扩展组网的组成部分,它运行在近地轨道,为全球尤其是偏远地区提供高速低延迟的宽带互联网接入,同时也可支持军事、应急通信等场景,推动全球互联网覆盖与数字连通。

基本信息
目录编号:
64686
目录名称:
STARLINK-34565
国际标识:
2025-139Y
轨道中心:
EARTH
卫星名称:
星链-34565
卫星全名:
星链-34565 (STARLINK-34565)
卫星状态:
在轨 (已飞行350 天)
发射日期:
2025-06-28 UTC
国别 :
美国 (US)
星等 :
--
轨道信息
数据来源 国际轨道数据
星历时间: 2026-06-13T17:06:02+0800
12小时前
查看轨道信息
半长轴: 6840.866km
偏心率: 0.0001446
轨道倾角: 53.161°
近地点辐角 85.762°
升交点赤经 41.224°
平近点角 274.355°
近地点: 461.739km
远地点: 463.719km
周期: 93.848分钟
每日圈数: 15.343914
详细信息
固有亮度:
5
最大亮度:
2.5
卫星平台:
Starlink V1.0
覆盖范围:
全球
运营商:
太空探索技术公司
运营商所在国:
美国
制造商(研发单位):
太空探索技术公司
制造商所在国:
美国
使用方式:
暂无
卫星简介
Starlink 计划是 SpaceX 推出的全球卫星互联网项目,通过发射低轨道卫星,为全球尤其是偏远地区提供高速、低延迟的互联网服务。自 2019 年起,Starlink 已部署数千颗卫星,旨在缩小全球数字鸿沟,推动互联网普及。该项目还为军事、航空等行业提供通信支持,带来广泛经济效益。
2D轨道图
3D轨道图
轨道高度分析图
轨道倾角分析图
轨道综合分析图
查看轨道综合分析图